GW1995 Weather Reports


Display with metric or nautical units.
time (UTC)temp
F
wind
direction
speed
MPH
gust
MPH
rain 1hr
in
rain 24hr
in
rain mn
in
humidity
%
barometer
mb
20260509015112 66 267 1.0 6.0 0.00 0.00 0.00 27 1000.8
20260509014608 66 259 3.0 3.0 0.00 0.00 0.00 27 1000.7
20260509014105 66 292 2.0 2.0 0.00 0.00 0.00 28 1000.8
20260509013602 66 283 1.0 2.0 0.00 0.00 0.00 27 1000.7
20260509013057 67 269 2.0 3.0 0.00 0.00 0.00 26 1000.8
20260509012555 67 261 1.0 3.0 0.00 0.00 0.00 26 1000.6
20260509012051 67 235 2.0 3.0 0.00 0.00 0.00 26 1000.5
20260509011549 68 284 3.0 5.0 0.00 0.00 0.00 26 1000.5
20260509011046 68 289 3.0 5.0 0.00 0.00 0.00 26 1000.6
20260509010544 68 286 3.0 7.0 0.00 0.00 0.00 26 1000.8
20260509010040 68 254 3.0 5.0 0.00 0.00 0.00 26 1000.5
20260509005538 69 276 3.0 7.0 0.00 0.00 0.00 25 1000.3
20260509005038 69 275 3.0 7.0 0.00 0.00 0.00 26 1000.5
20260509004535 69 243 0.0 3.0 0.00 0.00 0.00 26 1000.5
20260509004032 69 281 2.0 6.0 0.00 0.00 0.00 26 1000.2
20260509003531 70 266 3.0 5.0 0.00 0.00 0.00 25 1000.5
20260509003027 70 262 2.0 2.0 0.00 0.00 0.00 25 1000.4
20260509002525 70 258 1.0 5.0 0.00 0.00 0.00 26 1000.6
20260509002022 70 309 3.0 5.0 0.00 0.00 0.00 26 1000.5
20260509001519 71 259 4.0 13.0 0.00 0.00 0.00 25 1000.4
20260509001015 71 257 4.0 5.0 0.00 0.00 0.00 25 1000.4
20260509000514 71 281 3.0 6.0 0.00 0.00 0.00 26 1000.5
20260509000009 70 282 1.0 3.0 0.00 0.00 0.00 26 1000.5
20260508235508 70 292 2.0 5.0 0.00 0.00 0.00 26 1000.4
20260508235003 70 245 2.0 3.0 0.00 0.00 0.00 25 1000.4
20260508234500 71 287 3.0 5.0 0.00 0.00 0.00 25 1000.5
20260508233958 71 258 1.0 3.0 0.00 0.00 0.00 25 1000.5
20260508233457 71 289 1.0 3.0 0.00 0.00 0.00 25 1000.5
20260508232954 72 262 1.0 2.0 0.00 0.00 0.00 24 1000.6
20260508232451 71 276 2.0 3.0 0.00 0.00 0.00 24 1000.7
20260508231948 71 285 2.0 6.0 0.00 0.00 0.00 25 1000.7
20260508231445 70 292 3.0 5.0 0.00 0.00 0.00 25 1000.8
20260508230942 70 280 1.0 2.0 0.00 0.00 0.00 26 1000.9
20260508230439 71 220 4.0 8.0 0.00 0.00 0.00 24 1000.8
20260508225936 71 281 3.0 3.0 0.00 0.00 0.00 24 1000.9
20260508225433 70 278 2.0 3.0 0.00 0.00 0.00 24 1001.0
20260508224930 70 272 3.0 5.0 0.00 0.00 0.00 24 1000.9
20260508224427 71 283 2.0 5.0 0.00 0.00 0.00 24 1000.9
20260508223925 71 244 1.0 3.0 0.00 0.00 0.00 24 1000.8
20260508223423 72 296 3.0 5.0 0.00 0.00 0.00 23 1000.8
20260508222919 71 229 2.0 2.0 0.00 0.00 0.00 25 1001.0
20260508222417 70 316 4.0 6.0 0.00 0.00 0.00 24 1001.2
20260508221913 71 310 3.0 7.0 0.00 0.00 0.00 24 1001.1
20260508221409 71 299 2.0 3.0 0.00 0.00 0.00 24 1001.2
20260508220905 70 267 2.0 2.0 0.00 0.00 0.00 24 1001.1
20260508220402 70 281 4.0 6.0 0.00 0.00 0.00 24 1001.3
20260508215858 71 214 2.0 2.0 0.00 0.00 0.00 24 1001.3
20260508215355 70 278 2.0 5.0 0.00 0.00 0.00 24 1001.4
20260508214852 71 278 2.0 5.0 0.00 0.00 0.00 23 1001.3
20260508214350 70 288 3.0 6.0 0.00 0.00 0.00 24 1001.6
20260508213845 71 252 3.0 8.0 0.00 0.00 0.00 23 1001.7
20260508213343 70 258 4.0 7.0 0.00 0.00 0.00 23 1001.8
20260508212838 69 229 3.0 3.0 0.00 0.00 0.00 24 1001.8
20260508212335 70 264 3.0 9.0 0.00 0.00 0.00 23 1001.7
20260508211831 71 243 4.0 5.0 0.00 0.00 0.00 23 1001.6
20260508211327 71 248 5.0 7.0 0.00 0.00 0.00 23 1001.9
20260508210825 71 251 4.0 5.0 0.00 0.00 0.00 23 1001.9
20260508210321 70 223 3.0 7.0 0.00 0.00 0.00 24 1002.0
20260508205818 71 221 2.0 7.0 0.00 0.00 0.00 23 1002.2
20260508205314 70 293 8.0 9.0 0.00 0.00 0.00 24 1002.0
20260508204811 71 190 1.0 8.0 0.00 0.00 0.00 23 1002.2
20260508204308 70 246 5.0 9.0 0.00 0.00 0.00 23 1002.5
20260508203804 70 253 3.0 5.0 0.00 0.00 0.00 23 1002.3
20260508203300 69 222 2.0 5.0 0.00 0.00 0.00 24 1002.4
20260508202755 69 252 3.0 7.0 0.00 0.00 0.00 24 1002.5
20260508202253 69 278 2.0 6.0 0.00 0.00 0.00 24 1002.6
20260508201750 70 261 3.0 7.0 0.00 0.00 0.00 23 1002.8
20260508201247 70 266 6.0 9.0 0.00 0.00 0.00 22 1002.8
20260508200744 69 267 5.0 7.0 0.00 0.00 0.00 23 1002.9
20260508200240 70 248 4.0 9.0 0.00 0.00 0.00 23 1002.8
20260508195736 70 263 3.0 6.0 0.00 0.00 0.00 23 1002.9
20260508195233 70 255 4.0 9.0 0.00 0.00 0.00 23 1002.9
20260508194730 69 306 3.0 5.0 0.00 0.00 0.00 23 1003.1
20260508194226 69 267 7.0 8.0 0.00 0.00 0.00 23 1003.1
20260508193724 69 216 5.0 6.0 0.00 0.00 0.00 22 1003.0
20260508193220 69 232 5.0 7.0 0.00 0.00 0.00 23 1003.3
20260508192717 70 254 7.0 10.0 0.00 0.00 0.00 22 1003.1
20260508192214 70 229 3.0 6.0 0.00 0.00 0.00 23 1003.3
20260508191711 71 263 3.0 10.0 0.00 0.00 0.00 23 1003.3
20260508191208 71 222 2.0 6.0 0.00 0.00 0.00 22 1003.1
20260508190705 70 285 6.0 9.0 0.00 0.00 0.00 22 1003.7
20260508190201 70 294 6.0 9.0 0.00 0.00 0.00 22 1003.6
20260508185658 68 243 3.0 6.0 0.00 0.00 0.00 22 1003.5
20260508185155 69 309 3.0 9.0 0.00 0.00 0.00 23 1003.6
20260508184653 70 274 3.0 8.0 0.00 0.00 0.00 22 1003.6
20260508184150 69 345 4.0 6.0 0.00 0.00 0.00 24 1003.6
20260508183646 70 339 3.0 6.0 0.00 0.00 0.00 23 1003.7
20260508183142 69 293 4.0 6.0 0.00 0.00 0.00 23 1004.0
20260508182639 69 276 5.0 6.0 0.00 0.00 0.00 23 1004.2
20260508182135 69 284 4.0 10.0 0.00 0.00 0.00 22 1004.3
20260508181631 69 187 2.0 5.0 0.00 0.00 0.00 24 1004.4
20260508181128 68 274 3.0 6.0 0.00 0.00 0.00 25 1004.3
20260508180625 68 337 5.0 11.0 0.00 0.00 0.00 25 1004.4
20260508180122 67 268 3.0 5.0 0.00 0.00 0.00 24 1004.6
20260508175618 67 271 7.0 8.0 0.00 0.00 0.00 24 1004.9
20260508175115 67 279 4.0 11.0 0.00 0.00 0.00 24 1004.9
20260508174613 68 258 3.0 5.0 0.00 0.00 0.00 25 1005.0
20260508174109 67 275 3.0 7.0 0.00 0.00 0.00 25 1005.0
20260508173606 67 277 2.0 16.0 0.00 0.00 0.00 24 1005.3
20260508173102 66 216 1.0 3.0 0.00 0.00 0.00 25 1005.3
20260508172600 64 241 1.0 3.0 0.00 0.00 0.00 27 1005.3
20260508172056 65 232 3.0 7.0 0.00 0.00 0.00 26 1005.5
20260508171553 65 249 3.0 8.0 0.00 0.00 0.00 26 1005.6
20260508171049 65 269 2.0 6.0 0.00 0.00 0.00 25 1005.5
20260508170547 65 248 4.0 6.0 0.00 0.00 0.00 25 1005.5
20260508170044 64 262 4.0 5.0 0.00 0.00 0.00 26 1005.8
20260508165541 64 238 4.0 6.0 0.00 0.00 0.00 26 1005.7
20260508165038 65 241 2.0 6.0 0.00 0.00 0.00 26 1005.9
20260508164534 64 257 2.0 7.0 0.00 0.00 0.00 27 1005.8
20260508164031 64 244 4.0 8.0 0.00 0.00 0.00 27 1006.0
20260508163528 64 268 2.0 7.0 0.00 0.00 0.00 28 1005.9
20260508163025 63 203 6.0 8.0 0.00 0.00 0.00 27 1006.0
20260508162522 64 231 5.0 7.0 0.00 0.00 0.00 28 1006.1
20260508162019 63 266 3.0 5.0 0.00 0.00 0.00 29 1006.1
20260508161516 63 267 2.0 7.0 0.00 0.00 0.00 29 1006.2
20260508161013 63 250 3.0 7.0 0.00 0.00 0.00 29 1006.2
20260508160512 62 228 6.0 9.0 0.00 0.00 0.00 28 1006.3
20260508160008 62 224 3.0 3.0 0.00 0.00 0.00 29 1006.3
20260508155505 63 214 3.0 8.0 0.00 0.00 0.00 28 1006.2
20260508155002 63 247 1.0 5.0 0.00 0.00 0.00 30 1006.3
20260508154500 62 268 1.0 3.0 0.00 0.00 0.00 30 1006.4
20260508153956 62 234 3.0 6.0 0.00 0.00 0.00 30 1006.2
20260508153453 61 233 3.0 6.0 0.00 0.00 0.00 30 1006.6
20260508152949 61 260 4.0 6.0 0.00 0.00 0.00 31 1006.4
20260508152446 61 227 1.0 6.0 0.00 0.00 0.00 31 1006.5
20260508151942 61 286 1.0 3.0 0.00 0.00 0.00 32 1006.6
20260508151439 60 230 2.0 3.0 0.00 0.00 0.00 33 1006.7
20260508150935 59 239 2.0 6.0 0.00 0.00 0.00 33 1006.8
20260508150432 59 210 6.0 9.0 0.00 0.00 0.00 32 1006.9
20260508145928 59 237 2.0 3.0 0.00 0.00 0.00 33 1006.8
20260508145425 59 257 2.0 7.0 0.00 0.00 0.00 33 1006.8
20260508144921 58 283 2.0 5.0 0.00 0.00 0.00 33 1006.8
20260508144419 58 254 0.0 3.0 0.00 0.00 0.00 33 1007.0
20260508143917 57 227 3.0 9.0 0.00 0.00 0.00 32 1006.8
20260508143414 58 197 4.0 7.0 0.00 0.00 0.00 33 1006.8
20260508142910 58 258 2.0 5.0 0.00 0.00 0.00 32 1007.0
20260508142408 58 238 4.0 7.0 0.00 0.00 0.00 32 1007.0
20260508141904 58 243 2.0 5.0 0.00 0.00 0.00 32 1007.1
20260508141400 57 255 2.0 5.0 0.00 0.00 0.00 33 1007.1
20260508140858 57 194 4.0 5.0 0.00 0.00 0.00 32 1007.3
20260508140355 57 250 2.0 6.0 0.00 0.00 0.00 32 1007.3
20260508135851 57 244 2.0 5.0 0.00 0.00 0.00 32 1007.2
20260508135347 57 233 3.0 8.0 0.00 0.00 0.00 32 1007.3
20260508134843 56 207 5.0 7.0 0.00 0.00 0.00 32 1007.2
20260508134340 55 217 3.0 7.0 0.00 0.00 0.00 33 1007.2
20260508133837 55 196 4.0 10.0 0.00 0.00 0.00 34 1007.4
20260508133335 54 198 2.0 3.0 0.00 0.00 0.00 35 1007.3
20260508132832 53 209 1.0 6.0 0.00 0.00 0.00 36 1007.6
20260508132329 52 255 2.0 2.0 0.00 0.00 0.00 38 1007.4
20260508131826 52 188 2.0 2.0 0.00 0.00 0.00 39 1007.5
20260508131321 51 193 2.0 3.0 0.00 0.00 0.00 40 1007.6
20260508130818 50 216 1.0 2.0 0.00 0.00 0.00 41 1007.7
20260508130315 49 238 1.0 1.0 0.00 0.00 0.00 43 1007.7
20260508125811 48 228 1.0 1.0 0.00 0.00 0.00 44 1007.6
20260508125308 48 237 0.0 1.0 0.00 0.00 0.00 45 1007.5
20260508124806 47 208 1.0 2.0 0.00 0.00 0.00 46 1007.7
20260508124303 47 211 1.0 2.0 0.00 0.00 0.00 46 1007.8
20260508123801 46 204 1.0 1.0 0.00 0.00 0.00 46 1007.6
20260508123259 46 204 0.0 1.0 0.00 0.00 0.00 47 1007.7
20260508122755 45 204 2.0 2.0 0.00 0.00 0.00 46 1007.6
20260508122252 44 203 0.0 1.0 0.00 0.00 0.00 47 1007.6
20260508121749 44 202 0.0 0.0 0.00 0.00 0.00 47 1007.6
20260508121248 43 202 0.0 1.0 0.00 0.00 0.00 48 1007.7
20260508120744 43 203 0.0 1.0 0.00 0.00 0.00 47 1007.5
20260508120243 43 203 1.0 1.0 0.00 0.00 0.00 47 1007.6
20260508115740 44 205 1.0 1.0 0.00 0.00 0.00 47 1007.5
20260508115237 44 205 0.0 1.0 0.00 0.00 0.00 47 1007.6
20260508114727 43 205 0.0 0.0 0.00 0.00 0.00 47 1007.6
20260508114224 42 205 0.0 0.0 0.00 0.00 0.00 48 1007.7
20260508113721 42 205 0.0 0.0 0.00 0.00 0.00 50 1007.5
20260508113220 42 205 0.0 0.0 0.00 0.00 0.00 49 1007.5
20260508112715 41 205 0.0 0.0 0.00 0.00 0.00 50 1007.6
20260508112212 41 205 0.0 1.0 0.00 0.00 0.00 50 1007.5
20260508111709 41 205 1.0 1.0 0.00 0.00 0.00 51 1007.4
20260508111207 40 210 2.0 2.0 0.00 0.00 0.00 53 1007.4
20260508110704 40 209 1.0 1.0 0.00 0.00 0.00 54 1007.5
20260508110200 40 211 1.0 1.0 0.00 0.00 0.00 54 1007.3
20260508105655 40 211 1.0 1.0 0.00 0.00 0.00 53 1007.4
20260508105152 40 213 1.0 2.0 0.00 0.00 0.00 53 1007.4
20260508104649 40 213 1.0 1.0 0.00 0.00 0.00 54 1007.4
20260508104146 40 213 1.0 1.0 0.00 0.00 0.00 55 1007.4
20260508103643 40 213 0.0 1.0 0.00 0.00 0.00 54 1007.5
20260508103140 40 213 0.0 1.0 0.00 0.00 0.00 54 1007.8
20260508102637 40 213 1.0 1.0 0.00 0.00 0.00 54 1008.0
20260508102135 39 213 1.0 1.0 0.00 0.00 0.00 55 1007.7
20260508101632 39 213 0.0 1.0 0.00 0.00 0.00 56 1007.5
20260508101130 39 213 1.0 1.0 0.00 0.00 0.00 56 1007.6
20260508100627 39 213 0.0 1.0 0.00 0.00 0.00 55 1007.5
20260508100125 38 213 0.0 1.0 0.00 0.00 0.00 57 1007.6
20260508095621 37 213 1.0 1.0 0.00 0.00 0.00 60 1007.5
20260508095118 37 213 0.0 0.0 0.00 0.00 0.00 64 1007.5
20260508094615 37 213 0.0 0.0 0.00 0.00 0.00 62 1007.7
20260508094112 38 213 0.0 0.0 0.00 0.00 0.00 61 1007.6
20260508093609 39 213 0.0 0.0 0.00 0.00 0.00 59 1008.0
20260508093107 39 213 0.0 1.0 0.00 0.00 0.00 56 1007.6
20260508092604 38 213 0.0 0.0 0.00 0.00 0.00 59 1007.7
20260508092103 37 213 0.0 0.0 0.00 0.00 0.00 61 1007.6
20260508091559 37 213 0.0 0.0 0.00 0.00 0.00 63 1007.7
20260508091056 37 213 0.0 0.0 0.00 0.00 0.00 64 1007.7
20260508090554 37 213 0.0 0.0 0.00 0.00 0.00 63 1007.7
20260508090050 37 213 0.0 0.0 0.00 0.00 0.00 63 1007.6
20260508085547 37 213 0.0 0.0 0.00 0.00 0.00 63 1007.7
20260508085045 37 213 0.0 0.0 0.00 0.00 0.00 63 1007.7
20260508084541 37 213 0.0 0.0 0.00 0.00 0.00 63 1007.7
20260508084038 38 213 0.0 0.0 0.00 0.00 0.00 62 1007.8
20260508083536 38 213 0.0 0.0 0.00 0.00 0.00 62 1007.8
20260508083032 37 213 0.0 0.0 0.00 0.00 0.00 63 1007.8
20260508082528 37 213 0.0 0.0 0.00 0.00 0.00 62 1008.0
20260508082026 37 213 0.0 0.0 0.00 0.00 0.00 62 1008.0
20260508081523 38 213 0.0 0.0 0.00 0.00 0.00 62 1008.0
20260508081019 38 213 0.0 0.0 0.00 0.00 0.00 62 1007.8
20260508080517 38 213 0.0 0.0 0.00 0.00 0.00 62 1008.1
20260508080014 38 213 0.0 0.0 0.00 0.00 0.00 63 1008.2
20260508075511 38 213 0.0 0.0 0.00 0.00 0.00 62 1008.2
20260508075008 38 213 0.0 0.0 0.00 0.00 0.00 62 1008.2
20260508074506 38 213 0.0 0.0 0.00 0.00 0.00 62 1008.2
20260508074003 39 213 0.0 0.0 0.00 0.00 0.00 62 1008.2
20260508073500 39 213 0.0 0.0 0.00 0.00 0.00 62 1008.5
20260508072957 39 213 0.0 1.0 0.00 0.00 0.00 58 1008.1
20260508072453 39 213 0.0 0.0 0.00 0.00 0.00 60 1008.4
20260508071950 39 213 0.0 1.0 0.00 0.00 0.00 60 1008.3
20260508071448 39 213 0.0 1.0 0.00 0.00 0.00 61 1008.5
20260508070945 39 213 0.0 0.0 0.00 0.00 0.00 63 1008.7
20260508070443 39 213 0.0 0.0 0.00 0.00 0.00 63 1008.4
20260508065941 39 213 0.0 0.0 0.00 0.00 0.00 62 1008.5
20260508065439 39 213 0.0 0.0 0.00 0.00 0.00 61 1008.5
20260508064936 39 213 0.0 0.0 0.00 0.00 0.00 59 1008.5
20260508064434 40 213 0.0 0.0 0.00 0.00 0.00 60 1008.5
20260508063931 40 213 0.0 0.0 0.00 0.00 0.00 59 1008.6
20260508063429 40 213 0.0 0.0 0.00 0.00 0.00 57 1008.7
20260508062926 41 213 0.0 1.0 0.00 0.00 0.00 57 1008.7
20260508062424 41 213 0.0 1.0 0.00 0.00 0.00 57 1008.7
20260508061921 40 213 1.0 1.0 0.00 0.00 0.00 54 1008.8
20260508061418 40 213 0.0 1.0 0.00 0.00 0.00 59 1008.8
20260508060914 40 213 0.0 0.0 0.00 0.00 0.00 59 1008.9
20260508060412 40 213 0.0 0.0 0.00 0.00 0.00 59 1008.9
20260508055907 41 213 0.0 0.0 0.00 0.00 0.00 59 1008.8
20260508055405 41 213 0.0 0.0 0.00 0.00 0.00 58 1008.8
20260508054901 41 213 0.0 1.0 0.00 0.00 0.00 58 1008.8
20260508054358 41 213 0.0 1.0 0.00 0.00 0.00 56 1008.8
20260508053855 41 213 0.0 1.0 0.00 0.00 0.00 58 1008.8
20260508053352 41 213 1.0 1.0 0.00 0.00 0.00 58 1008.7
20260508052850 41 213 0.0 0.0 0.00 0.00 0.00 57 1008.9
20260508052347 41 213 0.0 0.0 0.00 0.00 0.00 56 1008.9
20260508051843 41 213 0.0 0.0 0.00 0.00 0.00 56 1008.9
20260508051338 42 213 0.0 1.0 0.00 0.00 0.00 55 1008.8
20260508050835 43 213 0.0 0.0 0.00 0.00 0.00 53 1008.9
20260508050333 43 213 0.0 0.0 0.00 0.00 0.00 51 1008.7
20260508045828 43 213 1.0 1.0 0.00 0.00 0.00 50 1008.8
20260508045326 43 213 0.0 1.0 0.00 0.00 0.00 51 1009.1
20260508044823 43 213 0.0 1.0 0.00 0.00 0.00 51 1008.9
20260508044320 43 213 1.0 1.0 0.00 0.00 0.00 52 1008.9
20260508043816 43 213 1.0 1.0 0.00 0.00 0.00 51 1009.1
20260508043313 43 213 1.0 2.0 0.00 0.00 0.00 50 1009.2
20260508042810 44 211 1.0 2.0 0.00 0.00 0.00 50 1009.2
20260508042308 44 213 1.0 1.0 0.00 0.00 0.00 49 1009.2
20260508041804 44 214 1.0 1.0 0.00 0.00 0.00 48 1009.3
20260508041301 44 214 1.0 2.0 0.00 0.00 0.00 49 1009.1
20260508040757 44 218 1.0 1.0 0.00 0.00 0.00 49 1009.3
20260508040255 44 219 1.0 1.0 0.00 0.00 0.00 49 1009.3
20260508035752 44 220 1.0 2.0 0.00 0.00 0.00 47 1009.3
20260508035249 44 224 1.0 2.0 0.00 0.00 0.00 48 1009.1
20260508034745 45 225 1.0 1.0 0.00 0.00 0.00 49 1009.3
20260508034243 45 225 1.0 1.0 0.00 0.00 0.00 49 1009.5
20260508033740 45 225 1.0 1.0 0.00 0.00 0.00 47 1009.6
20260508033238 46 225 1.0 2.0 0.00 0.00 0.00 46 1009.4
20260508032735 46 228 1.0 1.0 0.00 0.00 0.00 46 1009.5
20260508032232 46 228 1.0 1.0 0.00 0.00 0.00 47 1009.5
20260508031729 46 228 1.0 1.0 0.00 0.00 0.00 47 1009.3
20260508031225 46 228 1.0 1.0 0.00 0.00 0.00 44 1009.4
20260508030722 47 221 1.0 1.0 0.00 0.00 0.00 46 1009.5
20260508030220 47 221 1.0 2.0 0.00 0.00 0.00 43 1009.4
20260508025715 47 225 1.0 2.0 0.00 0.00 0.00 44 1009.5
20260508025213 48 228 1.0 1.0 0.00 0.00 0.00 43 1009.4
20260508024709 47 228 1.0 1.0 0.00 0.00 0.00 41 1009.3
20260508024206 48 242 1.0 1.0 0.00 0.00 0.00 42 1009.3
20260508023702 48 242 1.0 1.0 0.00 0.00 0.00 41 1009.4
20260508023200 48 243 1.0 1.0 0.00 0.00 0.00 40 1009.5
20260508022655 49 243 1.0 1.0 0.00 0.00 0.00 40 1009.4
20260508022153 49 243 1.0 1.0 0.00 0.00 0.00 39 1009.4
20260508021649 50 244 1.0 1.0 0.00 0.00 0.00 38 1009.2
20260508021144 50 243 0.0 1.0 0.00 0.00 0.00 38 1009.2
20260508020642 51 243 1.0 1.0 0.00 0.00 0.00 35 1009.1
20260508020140 51 243 1.0 1.0 0.00 0.00 0.00 35 1009.0
20260508015637 51 243 1.0 1.0 0.00 0.00 0.00 35 1009.0